Find OPS 8068

NORAD ID: 1580 Int'l Des: 1965-072 Owner: AFSSD Country: US operational
LEORETROGRADESSO

現在のビュー

3D地球を読み込み中...

OPS 8068について

説明を読み込み中...

次回通過

Passes for default location (London). Set your location on the main map for personalized predictions.

高度履歴

Loading altitude history...

軌道要素

1 1580U 65072A 26150.39648480 .00000474 00000-0 15233-3 0 9992
2 1580 98.4177 307.4451 0230128 98.1793 264.5560 14.29652082130471
Epoch: May 30, 2026 • Age: 20 hours

現在のステータス

高度 986.0 km
速度 7.27 km/s
衛星直下点 -79.87°S, 36.02°E
タイプ other

Most Searched